Weather History for Jacksonville Craig, FL

Change the Weather History Date:

Saturday, November 10, 2012

  Actual Average Record
Temperature  
Mean Temperature 58 °F -  
Max Temperature 72 °F 71 °F 82 °F (2002)
Min Temperature 44 °F 54 °F 39 °F (1996)
Degree Days  
Heating Degree Days 7    
Growing Degree Days 8 (Base 50)    
Moisture  
Dew Point 49 °F    
Average Humidity 73    
Maximum Humidity 90    
Minimum Humidity 44    
Precipitation  
Precipitation 0.00 in - - ()
Sea Level Pressure  
Sea Level Pressure 30.32 in    
Wind  
Wind Speed 2 mph (NE)    
Max Wind Speed 10 mph    
Max Gust Speed -    
Visibility 10 miles    
Events      
Averages and records for this station are not official NWS values.
T = Trace of Precipitation, MM = Missing Value Source: NWS Daily Summary

Daily Weather History Graph

Daily Weather History Graph

Search for Another Location

Airport:

Trip Planner

Search our weather history database for the weather conditions in past years. The results will help you decide how hot, cold, wet, or windy it might be!

Date:

Astronomy

Nov. 10, 2012 Rise Set
Actual Time 6:47 AM EST 5:31 PM EST
Civil Twilight 6:22 AM EST 5:56 PM EST
Nautical Twilight 5:53 AM EST 6:25 PM EST
Astronomical Twilight 5:25 AM EST 6:54 PM EST
Moon 3:05 AM EST (11/10) 3:06 PM EST (11/10)
Length of Visible Light 11h 34m
Length of Day
10h 43m
Waning Crescent, 14% of the Moon is Illuminated
Nov 10
Waning Crescent
Nov 13
New
Nov 20
First Quarter
Nov 28
Full
Dec 6
Last Quarter

Hourly Weather History & Observations

Time (EST) Temp. Dew Point Humidity Pressure Visibility Wind Dir Wind Speed Gust Speed Precip Events Conditions
12:53 AM 46.0 °F 41.0 °F 83% 30.27 in 10.0 mi Calm Calm - N/A   Clear
1:53 AM 45.0 °F 39.9 °F 82% 30.27 in 10.0 mi Calm Calm - N/A   Clear
2:53 AM 45.0 °F 39.9 °F 82% 30.28 in 10.0 mi Calm Calm - N/A   Clear
3:53 AM 44.1 °F 39.0 °F 82% 30.28 in 10.0 mi Calm Calm - N/A   Clear
4:53 AM 44.1 °F 39.9 °F 85% 30.29 in 10.0 mi Calm Calm - N/A   Clear
5:53 AM 46.0 °F 42.1 °F 86% 30.30 in 8.0 mi Calm Calm - N/A   Clear
6:53 AM 45.0 °F 42.1 °F 90% 30.32 in 8.0 mi Calm Calm - N/A   Clear
7:53 AM 50.0 °F 46.9 °F 89% 30.34 in 7.0 mi Calm Calm - N/A   Clear
8:53 AM 60.1 °F 50.0 °F 69% 30.36 in 10.0 mi NNW 3.5 mph - N/A   Clear
9:53 AM 66.9 °F 51.1 °F 57% 30.36 in 10.0 mi NNE 5.8 mph - N/A   Clear
10:53 AM 70.0 °F 53.1 °F 55% 30.36 in 10.0 mi East 6.9 mph - N/A   Clear
11:53 AM 71.1 °F 55.0 °F 57% 30.35 in 10.0 mi Variable 5.8 mph - N/A   Clear
12:53 PM 71.1 °F 48.0 °F 44% 30.32 in 10.0 mi ENE 9.2 mph - N/A   Clear
1:53 PM 72.0 °F 50.0 °F 46% 30.30 in 10.0 mi NE 9.2 mph - N/A   Clear
2:53 PM 71.1 °F 52.0 °F 51% 30.30 in 10.0 mi East 10.4 mph - N/A   Clear
3:53 PM 70.0 °F 53.1 °F 55% 30.30 in 10.0 mi NE 6.9 mph - N/A   Clear
4:53 PM 69.1 °F 54.0 °F 58% 30.30 in 10.0 mi ENE 4.6 mph - N/A   Clear
5:53 PM 64.0 °F 54.0 °F 70% 30.31 in 10.0 mi NE 3.5 mph - N/A   Clear
6:53 PM 60.1 °F 54.0 °F 80% 30.32 in 10.0 mi Calm Calm - N/A   Clear
7:53 PM 60.1 °F 54.0 °F 80% 30.33 in 10.0 mi Calm Calm - N/A   Mostly Cloudy
8:53 PM 59.0 °F 54.0 °F 83% 30.34 in 10.0 mi Calm Calm - N/A   Mostly Cloudy
9:53 PM 59.0 °F 55.0 °F 87% 30.33 in 10.0 mi Calm Calm - N/A   Mostly Cloudy
10:53 PM 57.9 °F 54.0 °F 87% 30.32 in 10.0 mi Calm Calm - N/A   Scattered Clouds
11:53 PM 57.9 °F 54.0 °F 87% 30.32 in 5.0 mi Calm Calm - N/A   Scattered Clouds